Tracking 25410 objects as of 21-Jan-2022
HD Live streaming from Space Station
objects crossing your sky now

CLUSTER II-FM7

Track CLUSTER II-FM7 now!
CLUSTER II-FM7 is classified as:


NORAD ID: 26411
Int'l Code: 2000-041B
Perigee: 16,010.2 km
Apogee: 116,811.8 km
Inclination: 135.1 °
Period: 3,256.8 minutes
Semi major axis: 72781 km
RCS: 1.5887 m2 (large)
Launch date: July 16, 2000
Source: European Space Agency (ESA)
Launch site: TYURATAM MISSILE AND SPACE COMPLEX (TTMTR)
aabbcc
Your satellite tracking list
Your tracking list is empty




NASA's NSSDC Master Catalog

Two Line Element Set (TLE):
1 26411U 00041B   22021.84601506  .00000461  00000-0  00000-0 0  9997
2 26411 135.1190 349.0601 6924903 201.0911 359.0857  0.44214751 13218
Source of the keplerian elements: AFSPC